N24S ZGHA-VHHH

Flight info

Callsign N24S
Flight time N/A
Altitude 4900
Route UBM02D UBMOG W615 IDAXI R473 NNX/K0296S0120 R473 WYN W18 NLG W23 ZUH/K0300S0150 R473 SIERA/N0162F049
Aircraft DA40/L-SDGRY/S

Departure

Time 2026-04-18 01:34
Airport Changsha Huanghua International Airport (ZGHA)

Arrival

Time N/A
Airport Hong Kong International Airport (VHHH)
Time Latitude Longitude Altitude Speed Heading
2026-04-18 01:27 28.18513 113.21706 206 ft 0 kts 177°
2026-04-18 01:28 28.18504 113.21727 210 ft 7 kts 80°
2026-04-18 01:28 28.18518 113.21807 213 ft 14 kts 77°
2026-04-18 01:28 28.18595 113.21939 207 ft 25 kts 36°
2026-04-18 01:28 28.18667 113.22127 206 ft 25 kts 73°
2026-04-18 01:29 28.18757 113.22266 199 ft 20 kts 40°
2026-04-18 01:29 28.18871 113.22329 200 ft 16 kts 21°
2026-04-18 01:29 28.18969 113.22359 199 ft 0 kts 354°
2026-04-18 01:32 28.19012 113.22356 199 ft 27 kts 357°
2026-04-18 01:33 28.19371 113.22335 201 ft 73 kts 356°
2026-04-18 01:33 28.19913 113.22289 366 ft 79 kts 356°
2026-04-18 01:33 28.20499 113.22250 456 ft 93 kts 356°
2026-04-18 01:33 28.21194 113.22209 521 ft 106 kts 357°
2026-04-18 01:34 28.21951 113.22167 616 ft 111 kts 357°
2026-04-18 01:34 28.22738 113.22123 715 ft 114 kts 357°
2026-04-18 01:34 28.23533 113.22075 818 ft 115 kts 357°
2026-04-18 01:34 28.24329 113.22027 922 ft 116 kts 357°
2026-04-18 01:35 28.25139 113.21978 1025 ft 116 kts 357°
2026-04-18 01:35 28.25673 113.21945 1092 ft 116 kts 357°
2026-04-18 01:35 28.26744 113.21879 1230 ft 116 kts 357°
2026-04-18 01:35 28.27553 113.21829 1338 ft 116 kts 357°
2026-04-18 01:36 28.28090 113.21796 1412 ft 116 kts 357°
2026-04-18 01:36 28.28900 113.21746 1519 ft 116 kts 357°
2026-04-18 01:36 28.29698 113.21697 1625 ft 116 kts 357°
2026-04-18 01:36 28.30507 113.21646 1734 ft 116 kts 357°
2026-04-18 01:37 28.31305 113.21597 1836 ft 116 kts 357°
2026-04-18 01:37 28.32087 113.21769 1931 ft 116 kts 31°
2026-04-18 01:37 28.32564 113.22476 2029 ft 116 kts 73°
2026-04-18 01:37 28.32493 113.23372 2126 ft 117 kts 116°
2026-04-18 01:38 28.31901 113.23984 2228 ft 117 kts 154°
2026-04-18 01:38 28.31162 113.24348 2333 ft 117 kts 157°
2026-04-18 01:38 28.30409 113.24705 2439 ft 117 kts 157°
2026-04-18 01:38 28.29656 113.25065 2545 ft 117 kts 157°
2026-04-18 01:39 28.28911 113.25422 2653 ft 117 kts 157°
2026-04-18 01:39 28.28169 113.25780 2752 ft 117 kts 157°
2026-04-18 01:39 28.27418 113.26143 2855 ft 117 kts 157°
2026-04-18 01:39 28.26677 113.26501 2955 ft 117 kts 157°
2026-04-18 01:40 28.25927 113.26863 3065 ft 116 kts 157°
2026-04-18 01:40 28.25202 113.27214 3276 ft 106 kts 156°
2026-04-18 01:40 28.24554 113.27532 3488 ft 101 kts 156°
2026-04-18 01:40 28.23907 113.27846 3669 ft 98 kts 156°
2026-04-18 01:41 28.23289 113.28146 3866 ft 96 kts 156°
2026-04-18 01:41 28.22677 113.28443 4043 ft 97 kts 156°
2026-04-18 01:41 28.22058 113.28742 4224 ft 97 kts 156°
2026-04-18 01:41 28.21439 113.29042 4404 ft 97 kts 155°
2026-04-18 01:42 28.20818 113.29342 4589 ft 97 kts 155°
2026-04-18 01:42 28.20195 113.29642 4767 ft 97 kts 155°
2026-04-18 01:42 28.19574 113.29942 4933 ft 98 kts 155°
2026-04-18 01:42 28.19007 113.30431 4949 ft 110 kts 121°
2026-04-18 01:43 28.18680 113.31242 4952 ft 118 kts 112°
2026-04-18 01:43 28.18356 113.32124 4951 ft 123 kts 112°
2026-04-18 01:43 28.17820 113.32878 4945 ft 127 kts 150°
2026-04-18 01:43 28.16947 113.33051 4950 ft 129 kts 180°
2026-04-18 01:44 28.16045 113.33025 4950 ft 130 kts 180°
2026-04-18 01:44 28.15143 113.33026 4950 ft 131 kts 179°
2026-04-18 01:44 28.14232 113.33047 4949 ft 131 kts 178°
2026-04-18 01:44 28.13319 113.33077 4949 ft 131 kts 177°
2026-04-18 01:45 28.12419 113.33109 4919 ft 131 kts 177°
2026-04-18 01:45 28.11501 113.33144 4919 ft 131 kts 178°
2026-04-18 01:45 28.10591 113.33178 4919 ft 131 kts 178°
2026-04-18 01:45 28.09677 113.33213 4919 ft 131 kts 177°
2026-04-18 01:46 28.08772 113.33247 4919 ft 131 kts 177°
2026-04-18 01:46 28.07856 113.33282 4919 ft 131 kts 178°
2026-04-18 01:46 28.06939 113.33317 4919 ft 131 kts 177°
2026-04-18 01:46 28.06039 113.33351 4919 ft 131 kts 177°
2026-04-18 01:47 28.05122 113.33386 4918 ft 131 kts 177°
2026-04-18 01:47 28.04210 113.33421 4919 ft 131 kts 177°
2026-04-18 01:47 28.03307 113.33456 4918 ft 131 kts 177°
2026-04-18 01:47 28.02393 113.33490 4919 ft 131 kts 177°
2026-04-18 01:48 28.01488 113.33525 4922 ft 131 kts 177°
2026-04-18 01:48 28.00571 113.33560 4922 ft 131 kts 177°
2026-04-18 01:48 27.99660 113.33594 4922 ft 131 kts 177°
2026-04-18 01:48 27.98766 113.33629 4922 ft 131 kts 177°
2026-04-18 01:49 27.97852 113.33664 4918 ft 130 kts 177°
2026-04-18 01:49 27.96953 113.33698 4919 ft 130 kts 177°
2026-04-18 01:49 27.96043 113.33732 4919 ft 130 kts 177°
2026-04-18 01:49 27.95147 113.33766 4919 ft 130 kts 177°
2026-04-18 01:50 27.94237 113.33801 4919 ft 130 kts 177°
2026-04-18 01:50 27.93338 113.33835 4919 ft 130 kts 176°
2026-04-18 01:50 27.92430 113.33869 4918 ft 130 kts 177°
2026-04-18 01:50 27.91529 113.33904 4918 ft 130 kts 177°
2026-04-18 01:51 27.90620 113.33938 4921 ft 130 kts 177°
2026-04-18 01:51 27.89718 113.33973 4921 ft 130 kts 177°
2026-04-18 01:51 27.88814 113.34007 4922 ft 130 kts 177°
2026-04-18 01:51 27.87912 113.34041 4921 ft 130 kts 177°
2026-04-18 01:52 27.87004 113.34076 4924 ft 130 kts 177°
2026-04-18 01:52 27.86086 113.34110 4923 ft 130 kts 177°
2026-04-18 01:52 27.85188 113.34145 4924 ft 130 kts 177°
2026-04-18 01:52 27.84286 113.34179 4924 ft 131 kts 176°
2026-04-18 01:53 27.83369 113.34214 4924 ft 131 kts 176°
2026-04-18 01:53 27.82466 113.34248 4923 ft 131 kts 177°
2026-04-18 01:53 27.81555 113.34282 4924 ft 131 kts 176°
2026-04-18 01:54 27.79739 113.34351 4926 ft 130 kts 177°
2026-04-18 01:54 27.78831 113.34386 4926 ft 130 kts 177°
2026-04-18 01:54 27.77935 113.34419 4926 ft 130 kts 177°
2026-04-18 01:54 27.77027 113.34454 4926 ft 130 kts 177°
2026-04-18 01:55 27.76114 113.34489 4923 ft 130 kts 177°
2026-04-18 01:55 27.75216 113.34523 4923 ft 131 kts 177°
2026-04-18 01:55 27.74305 113.34557 4923 ft 131 kts 177°
2026-04-18 01:55 27.73393 113.34592 4923 ft 131 kts 176°
2026-04-18 01:56 27.72489 113.34626 4923 ft 131 kts 176°
2026-04-18 01:56 27.71575 113.34661 4923 ft 131 kts 176°
2026-04-18 01:56 27.70661 113.34695 4923 ft 131 kts 177°
2026-04-18 01:56 27.69759 113.34729 4923 ft 131 kts 177°
2026-04-18 01:57 27.68838 113.34764 4925 ft 131 kts 177°
2026-04-18 01:57 27.67936 113.34798 4925 ft 131 kts 177°
2026-04-18 01:57 27.67018 113.34833 4925 ft 131 kts 177°
2026-04-18 01:57 27.66111 113.34867 4925 ft 131 kts 177°
2026-04-18 01:58 27.65196 113.34902 4922 ft 131 kts 177°
2026-04-18 01:58 27.64280 113.34936 4925 ft 131 kts 177°
2026-04-18 01:58 27.63377 113.34971 4925 ft 131 kts 176°
2026-04-18 01:58 27.62464 113.35005 4924 ft 131 kts 177°
2026-04-18 01:59 27.61548 113.35040 4924 ft 131 kts 176°
2026-04-18 01:59 27.60649 113.35074 4924 ft 131 kts 177°
2026-04-18 01:59 27.59729 113.35108 4924 ft 131 kts 176°
2026-04-18 01:59 27.58826 113.35142 4924 ft 131 kts 176°
2026-04-18 02:00 27.57910 113.35177 4923 ft 131 kts 177°
2026-04-18 02:00 27.56994 113.35212 4923 ft 131 kts 177°
2026-04-18 02:00 27.56077 113.35246 4923 ft 132 kts 176°
2026-04-18 02:00 27.55181 113.35280 4923 ft 132 kts 177°
2026-04-18 02:01 27.54251 113.35315 4923 ft 131 kts 177°
2026-04-18 02:01 27.53349 113.35349 4924 ft 131 kts 177°
2026-04-18 02:01 27.52433 113.35384 4923 ft 131 kts 177°
2026-04-18 02:01 27.51521 113.35418 4924 ft 131 kts 177°
2026-04-18 02:02 27.50603 113.35453 4923 ft 131 kts 177°
2026-04-18 02:02 27.49687 113.35487 4923 ft 132 kts 176°
2026-04-18 02:02 27.48768 113.35522 4923 ft 132 kts 177°
2026-04-18 02:02 27.47849 113.35557 4923 ft 132 kts 178°
2026-04-18 02:03 27.46939 113.35591 4923 ft 133 kts 178°
2026-04-18 02:03 27.46014 113.35626 4923 ft 133 kts 178°
2026-04-18 02:03 27.45093 113.35660 4923 ft 133 kts 178°
2026-04-18 02:03 27.44166 113.35695 4922 ft 133 kts 178°
2026-04-18 02:04 27.43242 113.35730 4919 ft 133 kts 178°
2026-04-18 02:04 27.42322 113.35765 4923 ft 132 kts 178°
2026-04-18 02:04 27.41401 113.35799 4923 ft 132 kts 178°
2026-04-18 02:04 27.40478 113.35834 4923 ft 133 kts 178°
2026-04-18 02:05 27.39553 113.35869 4930 ft 133 kts 178°
2026-04-18 02:05 27.38624 113.35904 4929 ft 134 kts 178°
2026-04-18 02:05 27.37696 113.35939 4929 ft 134 kts 178°
2026-04-18 02:05 27.36764 113.35974 4928 ft 134 kts 178°
2026-04-18 02:06 27.35833 113.36008 4928 ft 134 kts 178°
2026-04-18 02:06 27.34916 113.36043 4928 ft 133 kts 178°
2026-04-18 02:06 27.33989 113.36078 4928 ft 133 kts 178°
2026-04-18 02:06 27.33064 113.36112 4928 ft 133 kts 178°
2026-04-18 02:07 27.32138 113.36147 4925 ft 133 kts 178°
2026-04-18 02:07 27.31216 113.36182 4928 ft 132 kts 178°
2026-04-18 02:07 27.30296 113.36217 4929 ft 133 kts 178°
2026-04-18 02:07 27.29382 113.36251 4928 ft 133 kts 178°
2026-04-18 02:08 27.28458 113.36286 4928 ft 133 kts 178°
2026-04-18 02:08 27.27532 113.36321 4928 ft 133 kts 178°
2026-04-18 02:08 27.26610 113.36355 4929 ft 133 kts 178°
2026-04-18 02:08 27.25696 113.36390 4929 ft 133 kts 178°
2026-04-18 02:09 27.24766 113.36424 4931 ft 133 kts 178°
2026-04-18 02:09 27.23838 113.36459 4934 ft 133 kts 178°
2026-04-18 02:09 27.22909 113.36494 4934 ft 133 kts 178°
2026-04-18 02:09 27.21983 113.36529 4934 ft 133 kts 178°
2026-04-18 02:10 27.21057 113.36563 4934 ft 133 kts 178°
2026-04-18 02:10 27.20128 113.36598 4931 ft 134 kts 178°
2026-04-18 02:10 27.19198 113.36633 4931 ft 134 kts 178°
2026-04-18 02:10 27.18266 113.36668 4931 ft 134 kts 178°
2026-04-18 02:11 27.17336 113.36703 4931 ft 134 kts 178°
2026-04-18 02:11 27.16418 113.36737 4931 ft 134 kts 178°
2026-04-18 02:11 27.15488 113.36772 4931 ft 134 kts 178°
2026-04-18 02:11 27.14558 113.36807 4931 ft 134 kts 178°
2026-04-18 02:12 27.13628 113.36842 4928 ft 134 kts 178°
2026-04-18 02:12 27.12697 113.36877 4928 ft 134 kts 178°
2026-04-18 02:12 27.11768 113.36911 4928 ft 134 kts 178°
2026-04-18 02:12 27.10838 113.36946 4927 ft 133 kts 178°
2026-04-18 02:13 27.09910 113.36981 4931 ft 133 kts 178°
2026-04-18 02:13 27.08979 113.37016 4933 ft 133 kts 178°
2026-04-18 02:13 27.08053 113.37051 4934 ft 133 kts 178°
2026-04-18 02:13 27.07124 113.37085 4933 ft 133 kts 178°
2026-04-18 02:14 27.06211 113.37119 4933 ft 133 kts 178°
2026-04-18 02:14 27.05286 113.37154 4934 ft 133 kts 178°
2026-04-18 02:14 27.04357 113.37189 4934 ft 133 kts 178°
2026-04-18 02:14 27.03427 113.37223 4934 ft 134 kts 178°
2026-04-18 02:15 27.02493 113.37258 4937 ft 134 kts 178°
2026-04-18 02:15 27.01554 113.37293 4935 ft 135 kts 178°
2026-04-18 02:15 27.00613 113.37328 4935 ft 135 kts 178°
2026-04-18 02:15 26.99672 113.37363 4934 ft 135 kts 178°
2026-04-18 02:16 26.98735 113.37399 4934 ft 135 kts 178°
2026-04-18 02:16 26.97810 113.37433 4936 ft 134 kts 178°
2026-04-18 02:16 26.96879 113.37468 4936 ft 134 kts 178°
2026-04-18 02:16 26.95952 113.37503 4936 ft 133 kts 178°
2026-04-18 02:17 26.95024 113.37537 4933 ft 133 kts 178°
2026-04-18 02:17 26.94097 113.37572 4933 ft 133 kts 178°
2026-04-18 02:17 26.93170 113.37607 4933 ft 133 kts 178°
2026-04-18 02:17 26.92243 113.37641 4939 ft 134 kts 178°
2026-04-18 02:18 26.91312 113.37676 4939 ft 134 kts 178°
2026-04-18 02:18 26.90383 113.37711 4939 ft 134 kts 178°
2026-04-18 02:18 26.89453 113.37745 4939 ft 134 kts 178°
2026-04-18 02:18 26.88520 113.37780 4939 ft 134 kts 178°
2026-04-18 02:19 26.87587 113.37815 4937 ft 134 kts 178°
2026-04-18 02:19 26.86652 113.37849 4940 ft 135 kts 178°
2026-04-18 02:19 26.85718 113.37884 4939 ft 134 kts 178°
2026-04-18 02:19 26.84782 113.37919 4939 ft 134 kts 178°
2026-04-18 02:20 26.83862 113.37954 4939 ft 134 kts 178°
2026-04-18 02:20 26.82929 113.37988 4940 ft 134 kts 178°
2026-04-18 02:20 26.81995 113.38023 4938 ft 134 kts 178°
2026-04-18 02:20 26.81061 113.38058 4938 ft 134 kts 178°
2026-04-18 02:21 26.80129 113.38093 4943 ft 134 kts 178°
2026-04-18 02:21 26.79198 113.38127 4941 ft 134 kts 178°
2026-04-18 02:21 26.78268 113.38162 4941 ft 133 kts 178°
2026-04-18 02:21 26.77337 113.38197 4942 ft 134 kts 178°
2026-04-18 02:22 26.76404 113.38231 4945 ft 134 kts 178°
2026-04-18 02:22 26.75472 113.38266 4944 ft 134 kts 178°
2026-04-18 02:22 26.74539 113.38300 4946 ft 134 kts 178°
2026-04-18 02:22 26.73605 113.38335 4944 ft 134 kts 178°
2026-04-18 02:23 26.72987 113.38358 4940 ft 134 kts 178°
2026-04-18 02:23 26.72055 113.38393 4939 ft 134 kts 178°
2026-04-18 02:23 26.71125 113.38428 4938 ft 134 kts 178°
2026-04-18 02:23 26.69890 113.38474 4941 ft 134 kts 178°
2026-04-18 02:24 26.69259 113.38497 4942 ft 134 kts 178°
2026-04-18 02:24 26.68324 113.38531 4943 ft 134 kts 178°
2026-04-18 02:24 26.67401 113.38565 4941 ft 134 kts 178°
2026-04-18 02:24 26.66469 113.38600 4941 ft 134 kts 178°
2026-04-18 02:25 26.65538 113.38635 4946 ft 134 kts 178°
2026-04-18 02:25 26.64603 113.38670 4945 ft 134 kts 178°
2026-04-18 02:25 26.63670 113.38705 4944 ft 134 kts 178°
2026-04-18 02:25 26.62737 113.38739 4944 ft 134 kts 178°
2026-04-18 02:26 26.61805 113.38774 4944 ft 134 kts 178°
2026-04-18 02:26 26.60874 113.38808 4944 ft 134 kts 178°
2026-04-18 02:26 26.59945 113.38843 4944 ft 134 kts 178°
2026-04-18 02:26 26.59015 113.38877 4944 ft 134 kts 178°
2026-04-18 02:27 26.58091 113.38911 4941 ft 132 kts 178°
2026-04-18 02:27 26.57162 113.38946 4942 ft 134 kts 178°
2026-04-18 02:27 26.56240 113.38980 4942 ft 135 kts 178°
2026-04-18 02:27 26.55299 113.39015 4943 ft 136 kts 178°
2026-04-18 02:28 26.54352 113.39050 4944 ft 136 kts 178°
2026-04-18 02:28 26.53407 113.39085 4943 ft 136 kts 178°
2026-04-18 02:28 26.52461 113.39120 4946 ft 136 kts 178°
2026-04-18 02:28 26.51515 113.39155 4947 ft 136 kts 178°
2026-04-18 02:29 26.50570 113.39190 4944 ft 136 kts 178°
2026-04-18 02:29 26.49626 113.39225 4943 ft 136 kts 178°
2026-04-18 02:29 26.48683 113.39260 4946 ft 135 kts 178°
2026-04-18 02:29 26.47739 113.39295 4946 ft 136 kts 178°
2026-04-18 02:30 26.46796 113.39330 4948 ft 136 kts 178°
2026-04-18 02:30 26.45853 113.39365 4948 ft 136 kts 178°
2026-04-18 02:30 26.44911 113.39400 4948 ft 135 kts 178°
2026-04-18 02:30 26.43981 113.39434 4949 ft 135 kts 178°
2026-04-18 02:31 26.43037 113.39469 4951 ft 136 kts 178°
2026-04-18 02:31 26.42092 113.39504 4951 ft 136 kts 178°
2026-04-18 02:31 26.41145 113.39539 4952 ft 136 kts 178°
2026-04-18 02:31 26.40199 113.39574 4951 ft 136 kts 178°
2026-04-18 02:32 26.39254 113.39609 4949 ft 136 kts 178°
2026-04-18 02:32 26.38306 113.39644 4948 ft 136 kts 178°
2026-04-18 02:32 26.37359 113.39679 4948 ft 136 kts 178°
2026-04-18 02:32 26.36412 113.39714 4948 ft 136 kts 178°
2026-04-18 02:33 26.35469 113.39749 4945 ft 135 kts 178°
2026-04-18 02:33 26.34539 113.39783 4945 ft 135 kts 178°
2026-04-18 02:33 26.33601 113.39818 4945 ft 135 kts 178°
2026-04-18 02:33 26.32667 113.39853 4945 ft 134 kts 178°
2026-04-18 02:34 26.31731 113.39888 4949 ft 135 kts 178°
2026-04-18 02:34 26.30792 113.39923 4949 ft 136 kts 178°
2026-04-18 02:34 26.29842 113.39957 4950 ft 136 kts 178°
2026-04-18 02:34 26.28900 113.39991 4950 ft 135 kts 178°
2026-04-18 02:35 26.27961 113.40026 4951 ft 135 kts 178°
2026-04-18 02:35 26.27021 113.40060 4952 ft 135 kts 178°
2026-04-18 02:35 26.26090 113.40095 4951 ft 135 kts 178°
2026-04-18 02:35 26.25148 113.40129 4951 ft 135 kts 178°
2026-04-18 02:36 26.24207 113.40164 4954 ft 135 kts 178°
2026-04-18 02:36 26.23268 113.40199 4954 ft 135 kts 178°
2026-04-18 02:36 26.22328 113.40234 4952 ft 135 kts 178°
2026-04-18 02:36 26.21391 113.40269 4952 ft 134 kts 178°
2026-04-18 02:37 26.20458 113.40303 4955 ft 134 kts 178°
2026-04-18 02:37 26.19523 113.40338 4954 ft 135 kts 178°
2026-04-18 02:37 26.18583 113.40372 4955 ft 136 kts 178°
2026-04-18 02:37 26.17640 113.40407 4954 ft 136 kts 178°
2026-04-18 02:38 26.16691 113.40441 4949 ft 136 kts 178°
2026-04-18 02:38 26.15759 113.40476 4951 ft 135 kts 178°
2026-04-18 02:38 26.14814 113.40511 4951 ft 136 kts 178°
2026-04-18 02:38 26.13867 113.40546 4954 ft 137 kts 178°
2026-04-18 02:39 26.12914 113.40580 4958 ft 137 kts 178°
2026-04-18 02:39 26.11961 113.40615 4957 ft 137 kts 178°
2026-04-18 02:39 26.11007 113.40650 4957 ft 137 kts 178°
2026-04-18 02:39 26.10059 113.40686 4954 ft 136 kts 178°
2026-04-18 02:40 26.09118 113.40720 4951 ft 135 kts 178°
2026-04-18 02:40 26.08180 113.40755 4958 ft 134 kts 177°
2026-04-18 02:40 26.07239 113.40790 4958 ft 136 kts 177°
2026-04-18 02:40 26.06287 113.40825 4956 ft 137 kts 177°
2026-04-18 02:41 26.05327 113.40860 4948 ft 138 kts 176°
2026-04-18 02:41 26.04376 113.40899 4957 ft 136 kts 177°
2026-04-18 02:41 26.03430 113.40930 4963 ft 136 kts 177°
2026-04-18 02:41 26.02476 113.40963 4961 ft 137 kts 177°
2026-04-18 02:42 26.01532 113.40998 4957 ft 137 kts 177°
2026-04-18 02:42 26.00575 113.41035 4962 ft 138 kts 177°
2026-04-18 02:42 25.99612 113.41069 4955 ft 138 kts 177°
2026-04-18 02:42 25.98658 113.41104 4958 ft 136 kts 176°
2026-04-18 02:43 25.97706 113.41139 4963 ft 137 kts 176°
2026-04-18 02:43 25.96755 113.41175 4964 ft 137 kts 177°
2026-04-18 02:43 25.95802 113.41209 4963 ft 137 kts 177°
2026-04-18 02:43 25.94849 113.41245 4964 ft 137 kts 177°
2026-04-18 02:44 25.93898 113.41279 4961 ft 137 kts 177°
2026-04-18 02:44 25.92942 113.41315 4961 ft 137 kts 176°
2026-04-18 02:44 25.91985 113.41350 4962 ft 138 kts 177°
2026-04-18 02:44 25.91030 113.41383 4960 ft 137 kts 177°
2026-04-18 02:45 25.90090 113.41418 4961 ft 137 kts 176°
2026-04-18 02:45 25.89130 113.41454 4960 ft 138 kts 177°
2026-04-18 02:45 25.88169 113.41490 4960 ft 138 kts 177°
2026-04-18 02:45 25.87222 113.41524 4960 ft 138 kts 177°
2026-04-18 02:46 25.86267 113.41558 4962 ft 137 kts 177°
2026-04-18 02:46 25.85313 113.41594 4968 ft 138 kts 176°
2026-04-18 02:46 25.84348 113.41630 4964 ft 139 kts 177°
2026-04-18 02:46 25.83385 113.41664 4965 ft 139 kts 176°
2026-04-18 02:47 25.82422 113.41698 4959 ft 138 kts 177°
2026-04-18 02:47 25.81464 113.41733 4955 ft 136 kts 178°
2026-04-18 02:47 25.80522 113.41769 4962 ft 135 kts 176°
2026-04-18 02:47 25.79570 113.41806 4963 ft 138 kts 176°
2026-04-18 02:48 25.78605 113.41838 4958 ft 139 kts 179°
2026-04-18 02:48 25.77642 113.41873 4959 ft 138 kts 178°
2026-04-18 02:48 25.76693 113.41909 4961 ft 139 kts 178°
2026-04-18 02:48 25.75722 113.41945 4962 ft 140 kts 178°
2026-04-18 02:49 25.74743 113.41981 4958 ft 141 kts 179°
2026-04-18 02:49 25.73769 113.42016 4958 ft 140 kts 179°
2026-04-18 02:49 25.72801 113.42051 4957 ft 138 kts 179°
2026-04-18 02:49 25.71841 113.42086 4959 ft 138 kts 179°
2026-04-18 02:50 25.70880 113.42121 4955 ft 138 kts 179°
2026-04-18 02:50 25.69923 113.42157 4956 ft 137 kts 178°
2026-04-18 02:50 25.68967 113.42192 4955 ft 137 kts 179°
2026-04-18 02:50 25.68006 113.42226 4955 ft 139 kts 179°
2026-04-18 02:51 25.67046 113.42261 4954 ft 137 kts 179°
2026-04-18 02:51 25.66100 113.42297 4957 ft 135 kts 178°
2026-04-18 02:51 25.65162 113.42333 4958 ft 137 kts 179°
2026-04-18 02:51 25.64207 113.42366 4960 ft 138 kts 179°
2026-04-18 02:52 25.63244 113.42400 4954 ft 138 kts 179°
2026-04-18 02:52 25.62289 113.42433 4953 ft 137 kts 179°
2026-04-18 02:52 25.61338 113.42470 4950 ft 136 kts 179°
2026-04-18 02:52 25.60394 113.42506 4954 ft 136 kts 179°
2026-04-18 02:53 25.59449 113.42539 4951 ft 136 kts 179°
2026-04-18 02:53 25.58503 113.42574 4951 ft 136 kts 179°
2026-04-18 02:53 25.57556 113.42609 4950 ft 136 kts 178°
2026-04-18 02:53 25.56611 113.42645 4951 ft 136 kts 178°
2026-04-18 02:54 25.55669 113.42679 4952 ft 136 kts 179°
2026-04-18 02:54 25.54721 113.42712 4955 ft 137 kts 179°
2026-04-18 02:54 25.53763 113.42747 4954 ft 138 kts 179°
2026-04-18 02:54 25.52800 113.42782 4953 ft 139 kts 179°
2026-04-18 02:55 25.51837 113.42816 4954 ft 139 kts 179°
2026-04-18 02:55 25.50884 113.42850 4954 ft 140 kts 179°
2026-04-18 02:55 25.49909 113.42888 4946 ft 140 kts 178°
2026-04-18 02:55 25.48928 113.42924 4946 ft 142 kts 179°
2026-04-18 02:56 25.47946 113.42956 4949 ft 139 kts 179°
2026-04-18 02:56 25.46984 113.42993 4951 ft 137 kts 179°
2026-04-18 02:56 25.45078 113.43062 4952 ft 137 kts 179°
2026-04-18 02:57 25.44130 113.43097 4951 ft 136 kts 178°
2026-04-18 02:57 25.43179 113.43133 4953 ft 137 kts 178°
2026-04-18 02:57 25.42221 113.43168 4953 ft 138 kts 179°
2026-04-18 02:57 25.41260 113.43201 4948 ft 138 kts 179°
2026-04-18 02:58 25.40304 113.43236 4947 ft 137 kts 179°
2026-04-18 02:58 25.39353 113.43272 4949 ft 137 kts 179°
2026-04-18 02:58 25.38417 113.43305 4945 ft 136 kts 179°
2026-04-18 02:58 25.37470 113.43339 4940 ft 137 kts 179°
2026-04-18 02:59 25.36517 113.43375 4943 ft 138 kts 179°
2026-04-18 02:59 25.35553 113.43410 4945 ft 139 kts 179°
2026-04-18 02:59 25.34585 113.43445 4940 ft 137 kts 179°
2026-04-18 02:59 25.33647 113.43480 4948 ft 133 kts 179°
2026-04-18 03:00 25.32716 113.43513 4950 ft 135 kts 180°
2026-04-18 03:00 25.31776 113.43546 4948 ft 135 kts 180°
2026-04-18 03:00 25.30841 113.43581 4954 ft 132 kts 179°
2026-04-18 03:00 25.29919 113.43616 4957 ft 134 kts 179°
2026-04-18 03:01 25.28976 113.43648 4957 ft 138 kts 179°
2026-04-18 03:01 25.28011 113.43683 4945 ft 139 kts 179°
2026-04-18 03:01 25.27050 113.43717 4949 ft 138 kts 179°
2026-04-18 03:01 25.26094 113.43751 4943 ft 139 kts 179°
2026-04-18 03:02 25.25133 113.43786 4945 ft 138 kts 179°
2026-04-18 03:02 25.24181 113.43821 4944 ft 137 kts 179°
2026-04-18 03:02 25.23226 113.43857 4945 ft 137 kts 179°
2026-04-18 03:02 25.22275 113.43889 4942 ft 136 kts 179°
2026-04-18 03:03 25.21335 113.43924 4944 ft 133 kts 178°
2026-04-18 03:03 25.20412 113.43959 4946 ft 132 kts 179°
2026-04-18 03:03 25.19500 113.43993 4947 ft 130 kts 178°
2026-04-18 03:03 25.18591 113.44027 4951 ft 132 kts 179°
2026-04-18 03:04 25.17659 113.44061 4953 ft 135 kts 179°
2026-04-18 03:04 25.16717 113.44093 4953 ft 136 kts 179°
2026-04-18 03:04 25.15772 113.44127 4943 ft 136 kts 179°
2026-04-18 03:04 25.14827 113.44161 4944 ft 136 kts 179°
2026-04-18 03:05 25.13882 113.44196 4942 ft 136 kts 179°
2026-04-18 03:05 25.12936 113.44230 4942 ft 136 kts 179°
2026-04-18 03:05 25.11988 113.44263 4941 ft 136 kts 179°
2026-04-18 03:05 25.11054 113.44298 4941 ft 136 kts 179°
2026-04-18 03:06 25.10109 113.44332 4941 ft 136 kts 179°
2026-04-18 03:06 25.09165 113.44366 4941 ft 136 kts 179°
2026-04-18 03:06 25.08217 113.44399 4941 ft 136 kts 179°
2026-04-18 03:06 25.07269 113.44434 4939 ft 136 kts 179°
2026-04-18 03:07 25.06327 113.44468 4940 ft 135 kts 178°
2026-04-18 03:07 25.05386 113.44503 4941 ft 135 kts 179°
2026-04-18 03:07 25.04443 113.44538 4935 ft 136 kts 179°
2026-04-18 03:07 25.03510 113.44571 4936 ft 136 kts 179°
2026-04-18 03:08 25.02553 113.44605 4939 ft 136 kts 179°
2026-04-18 03:08 25.01619 113.44639 4938 ft 136 kts 179°
2026-04-18 03:08 25.00674 113.44673 4938 ft 136 kts 179°
2026-04-18 03:08 24.99727 113.44707 4939 ft 136 kts 179°
2026-04-18 03:09 24.98777 113.44741 4939 ft 137 kts 179°
2026-04-18 03:09 24.97824 113.44775 4938 ft 137 kts 179°
2026-04-18 03:09 24.96875 113.44810 4938 ft 136 kts 179°
2026-04-18 03:09 24.95928 113.44844 4938 ft 136 kts 179°
2026-04-18 03:10 24.95303 113.44867 4935 ft 136 kts 179°
2026-04-18 03:10 24.94357 113.44901 4936 ft 136 kts 179°
2026-04-18 03:10 24.93410 113.44935 4936 ft 136 kts 179°
2026-04-18 03:10 24.92459 113.44970 4934 ft 137 kts 178°
2026-04-18 03:11 24.91508 113.45004 4935 ft 137 kts 178°
2026-04-18 03:11 24.90559 113.45038 4936 ft 136 kts 178°
2026-04-18 03:11 24.89612 113.45072 4934 ft 136 kts 178°
2026-04-18 03:11 24.88667 113.45106 4936 ft 136 kts 178°
2026-04-18 03:12 24.87724 113.45140 4933 ft 136 kts 178°
2026-04-18 03:12 24.86773 113.45174 4932 ft 137 kts 178°
2026-04-18 03:12 24.85834 113.45208 4934 ft 137 kts 178°
2026-04-18 03:12 24.84877 113.45243 4933 ft 139 kts 178°
2026-04-18 03:13 24.83912 113.45277 4929 ft 139 kts 178°
2026-04-18 03:13 24.82946 113.45312 4934 ft 139 kts 178°
2026-04-18 03:13 24.81976 113.45346 4932 ft 140 kts 178°
2026-04-18 03:13 24.81007 113.45381 4928 ft 139 kts 178°
2026-04-18 03:14 24.80040 113.45417 4929 ft 140 kts 178°
2026-04-18 03:14 24.79067 113.45451 4928 ft 140 kts 178°
2026-04-18 03:14 24.78093 113.45486 4926 ft 140 kts 178°
2026-04-18 03:14 24.77124 113.45520 4925 ft 138 kts 178°
2026-04-18 03:15 24.76167 113.45555 4929 ft 137 kts 178°
2026-04-18 03:15 24.75210 113.45590 4929 ft 137 kts 178°
2026-04-18 03:15 24.74252 113.45625 4929 ft 138 kts 178°
2026-04-18 03:15 24.73305 113.45659 4929 ft 138 kts 178°
2026-04-18 03:16 24.72344 113.45693 4930 ft 138 kts 178°
2026-04-18 03:16 24.71383 113.45727 4931 ft 138 kts 178°
2026-04-18 03:16 24.70418 113.45763 4931 ft 139 kts 178°
2026-04-18 03:16 24.69444 113.45797 4928 ft 140 kts 178°
2026-04-18 03:17 24.68471 113.45831 4927 ft 140 kts 178°
2026-04-18 03:17 24.67501 113.45866 4925 ft 139 kts 178°
2026-04-18 03:17 24.66541 113.45902 4928 ft 138 kts 178°
2026-04-18 03:17 24.65574 113.45937 4927 ft 139 kts 178°
2026-04-18 03:18 24.64602 113.45972 4926 ft 141 kts 178°
2026-04-18 03:18 24.63624 113.46006 4917 ft 141 kts 178°
2026-04-18 03:18 24.62652 113.46041 4914 ft 138 kts 179°
2026-04-18 03:18 24.61698 113.46076 4920 ft 138 kts 179°
2026-04-18 03:19 24.60743 113.46110 4924 ft 140 kts 179°
2026-04-18 03:19 24.59765 113.46145 4923 ft 141 kts 179°
2026-04-18 03:19 24.58787 113.46180 4919 ft 140 kts 178°
2026-04-18 03:19 24.57823 113.46215 4911 ft 138 kts 178°
2026-04-18 03:20 24.56871 113.46249 4913 ft 136 kts 179°
2026-04-18 03:20 24.55922 113.46284 4912 ft 137 kts 179°
2026-04-18 03:20 24.54966 113.46318 4916 ft 138 kts 179°
2026-04-18 03:20 24.54001 113.46352 4918 ft 139 kts 179°
2026-04-18 03:21 24.53029 113.46386 4911 ft 139 kts 178°
2026-04-18 03:21 24.52077 113.46420 4910 ft 138 kts 179°
2026-04-18 03:21 24.51117 113.46454 4910 ft 138 kts 179°
2026-04-18 03:21 24.50167 113.46488 4909 ft 136 kts 178°
2026-04-18 03:22 24.49224 113.46523 4914 ft 136 kts 178°
2026-04-18 03:22 24.48267 113.46558 4916 ft 140 kts 178°
2026-04-18 03:22 24.47286 113.46592 4915 ft 141 kts 179°
2026-04-18 03:22 24.46303 113.46626 4905 ft 140 kts 179°
2026-04-18 03:23 24.45342 113.46662 4909 ft 136 kts 178°
2026-04-18 03:23 24.44416 113.46696 4915 ft 134 kts 178°
2026-04-18 03:23 24.43466 113.46730 4908 ft 140 kts 179°
2026-04-18 03:23 24.42490 113.46763 4907 ft 141 kts 179°
2026-04-18 03:24 24.41512 113.46797 4901 ft 140 kts 179°
2026-04-18 03:24 24.40536 113.46833 4903 ft 140 kts 179°
2026-04-18 03:24 24.39564 113.46868 4901 ft 139 kts 179°
2026-04-18 03:24 24.38600 113.46905 4904 ft 138 kts 179°
2026-04-18 03:25 24.37635 113.46938 4904 ft 139 kts 179°
2026-04-18 03:25 24.36667 113.46972 4903 ft 139 kts 179°
2026-04-18 03:25 24.35702 113.47006 4903 ft 138 kts 179°
2026-04-18 03:25 24.34745 113.47040 4899 ft 137 kts 179°
2026-04-18 03:26 24.33794 113.47074 4899 ft 136 kts 179°
2026-04-18 03:26 24.32858 113.47107 4899 ft 137 kts 179°
2026-04-18 03:26 24.31907 113.47142 4900 ft 137 kts 179°
2026-04-18 03:26 24.30959 113.47177 4896 ft 136 kts 179°
2026-04-18 03:27 24.30017 113.47210 4900 ft 135 kts 179°
2026-04-18 03:27 24.29079 113.47244 4903 ft 135 kts 179°
2026-04-18 03:27 24.28133 113.47277 4903 ft 137 kts 179°
2026-04-18 03:27 24.27186 113.47310 4901 ft 135 kts 179°
2026-04-18 03:28 24.26243 113.47345 4899 ft 136 kts 179°
2026-04-18 03:28 24.25302 113.47379 4901 ft 135 kts 179°
2026-04-18 03:28 24.24361 113.47412 4901 ft 136 kts 179°
2026-04-18 03:28 24.23411 113.47445 4900 ft 137 kts 179°
2026-04-18 03:29 24.22461 113.47479 4898 ft 137 kts 179°
2026-04-18 03:29 24.21503 113.47512 4895 ft 138 kts 179°
2026-04-18 03:29 24.20546 113.47547 4895 ft 138 kts 179°
2026-04-18 03:29 24.19604 113.47581 4894 ft 136 kts 179°
2026-04-18 03:30 24.18651 113.47615 4896 ft 138 kts 179°
2026-04-18 03:30 24.17691 113.47649 4895 ft 138 kts 179°
2026-04-18 03:30 24.16730 113.47683 4895 ft 138 kts 179°
2026-04-18 03:30 24.15771 113.47717 4894 ft 137 kts 179°
2026-04-18 03:31 24.14811 113.47752 4898 ft 138 kts 179°
2026-04-18 03:31 24.13852 113.47787 4897 ft 138 kts 179°
2026-04-18 03:31 24.12905 113.47820 4898 ft 138 kts 179°
2026-04-18 03:31 24.11941 113.47855 4900 ft 139 kts 179°
2026-04-18 03:32 24.10975 113.47888 4895 ft 139 kts 179°
2026-04-18 03:32 24.10010 113.47922 4896 ft 139 kts 179°
2026-04-18 03:32 24.09043 113.47957 4892 ft 139 kts 179°
2026-04-18 03:32 24.08085 113.47991 4893 ft 137 kts 179°
2026-04-18 03:33 24.07132 113.48025 4890 ft 137 kts 179°
2026-04-18 03:33 24.06178 113.48059 4890 ft 137 kts 179°
2026-04-18 03:33 24.05225 113.48093 4886 ft 137 kts 180°
2026-04-18 03:33 24.04274 113.48127 4886 ft 137 kts 180°
2026-04-18 03:34 24.03322 113.48161 4883 ft 136 kts 180°
2026-04-18 03:34 24.02379 113.48195 4889 ft 135 kts 181°
2026-04-18 03:34 24.01439 113.48229 4891 ft 135 kts 181°
2026-04-18 03:34 24.00506 113.48262 4892 ft 136 kts 181°
2026-04-18 03:35 23.99549 113.48295 4887 ft 138 kts 181°
2026-04-18 03:35 23.98585 113.48328 4886 ft 139 kts 180°
2026-04-18 03:35 23.97622 113.48362 4888 ft 139 kts 180°
2026-04-18 03:35 23.96656 113.48396 4886 ft 139 kts 180°
2026-04-18 03:36 23.95694 113.48432 4887 ft 138 kts 180°
2026-04-18 03:36 23.94734 113.48466 4885 ft 137 kts 179°
2026-04-18 03:36 23.93783 113.48499 4888 ft 137 kts 179°
2026-04-18 03:36 23.92830 113.48533 4888 ft 136 kts 179°
2026-04-18 03:37 23.91881 113.48567 4888 ft 137 kts 180°
2026-04-18 03:37 23.90938 113.48600 4886 ft 137 kts 180°
2026-04-18 03:37 23.89987 113.48634 4886 ft 136 kts 180°
2026-04-18 03:37 23.89044 113.48668 4886 ft 135 kts 179°
2026-04-18 03:38 23.88102 113.48702 4886 ft 135 kts 180°
2026-04-18 03:38 23.87161 113.48736 4885 ft 135 kts 180°
2026-04-18 03:38 23.86216 113.48769 4883 ft 136 kts 179°
2026-04-18 03:38 23.85273 113.48803 4883 ft 136 kts 180°
2026-04-18 03:39 23.84328 113.48836 4881 ft 136 kts 180°
2026-04-18 03:39 23.83384 113.48869 4882 ft 136 kts 179°
2026-04-18 03:39 23.82452 113.48902 4880 ft 136 kts 180°
2026-04-18 03:39 23.81495 113.48935 4881 ft 135 kts 179°
2026-04-18 03:40 23.80569 113.48969 4880 ft 135 kts 180°
2026-04-18 03:40 23.79629 113.49003 4881 ft 135 kts 180°
2026-04-18 03:40 23.78691 113.49035 4882 ft 135 kts 180°
2026-04-18 03:40 23.77758 113.49067 4880 ft 133 kts 179°
2026-04-18 03:41 23.76827 113.49101 4881 ft 134 kts 180°
2026-04-18 03:41 23.75886 113.49136 4878 ft 136 kts 180°
2026-04-18 03:41 23.74941 113.49168 4877 ft 135 kts 180°
2026-04-18 03:41 23.74002 113.49201 4878 ft 135 kts 180°
2026-04-18 03:42 23.73077 113.49234 4876 ft 134 kts 180°
2026-04-18 03:42 23.72142 113.49268 4870 ft 134 kts 180°
2026-04-18 03:42 23.71207 113.49302 4875 ft 134 kts 180°
2026-04-18 03:42 23.70276 113.49333 4874 ft 133 kts 180°
2026-04-18 03:43 23.69353 113.49365 4880 ft 132 kts 180°
2026-04-18 03:43 23.68428 113.49398 4879 ft 133 kts 180°
2026-04-18 03:43 23.67506 113.49432 4879 ft 132 kts 180°
2026-04-18 03:43 23.66581 113.49464 4880 ft 133 kts 180°
2026-04-18 03:44 23.65651 113.49496 4873 ft 133 kts 180°
2026-04-18 03:44 23.64727 113.49530 4879 ft 133 kts 180°
2026-04-18 03:44 23.63795 113.49563 4873 ft 134 kts 180°
2026-04-18 03:44 23.62871 113.49595 4872 ft 135 kts 180°
2026-04-18 03:45 23.61935 113.49628 4873 ft 135 kts 180°
2026-04-18 03:45 23.60993 113.49661 4872 ft 135 kts 180°
2026-04-18 03:45 23.60055 113.49694 4872 ft 135 kts 180°
2026-04-18 03:45 23.59115 113.49728 4873 ft 135 kts 180°
2026-04-18 03:46 23.58173 113.49761 4869 ft 135 kts 180°
2026-04-18 03:46 23.57234 113.49794 4868 ft 135 kts 180°
2026-04-18 03:46 23.56296 113.49827 4870 ft 135 kts 180°
2026-04-18 03:46 23.55359 113.49859 4866 ft 134 kts 180°
2026-04-18 03:47 23.54436 113.49893 4873 ft 134 kts 180°
2026-04-18 03:47 23.53502 113.49927 4873 ft 134 kts 180°
2026-04-18 03:47 23.52564 113.49959 4874 ft 135 kts 180°
2026-04-18 03:47 23.51628 113.49993 4870 ft 134 kts 180°
2026-04-18 03:48 23.50695 113.50026 4872 ft 134 kts 180°
2026-04-18 03:48 23.49765 113.50058 4873 ft 134 kts 180°
2026-04-18 03:48 23.48834 113.50091 4873 ft 133 kts 180°
2026-04-18 03:48 23.47905 113.50123 4873 ft 134 kts 180°
2026-04-18 03:49 23.46969 113.50155 4875 ft 134 kts 180°
2026-04-18 03:49 23.46036 113.50188 4875 ft 134 kts 180°
2026-04-18 03:49 23.45101 113.50222 4877 ft 135 kts 180°
2026-04-18 03:49 23.44173 113.50254 4876 ft 135 kts 180°
2026-04-18 03:50 23.43233 113.50287 4869 ft 135 kts 180°
2026-04-18 03:50 23.42284 113.50321 4869 ft 134 kts 180°
2026-04-18 03:50 23.41360 113.50354 4870 ft 135 kts 180°
2026-04-18 03:50 23.40420 113.50387 4870 ft 135 kts 180°
2026-04-18 03:51 23.39478 113.50420 4869 ft 136 kts 180°
2026-04-18 03:51 23.38534 113.50453 4867 ft 135 kts 180°
2026-04-18 03:51 23.37590 113.50487 4869 ft 136 kts 180°
2026-04-18 03:51 23.36645 113.50519 4867 ft 136 kts 180°
2026-04-18 03:52 23.35704 113.50553 4872 ft 136 kts 180°
2026-04-18 03:52 23.34756 113.50586 4871 ft 136 kts 180°
2026-04-18 03:52 23.33805 113.50619 4872 ft 137 kts 180°
2026-04-18 03:52 23.32862 113.50652 4870 ft 138 kts 180°
2026-04-18 03:53 23.31903 113.50684 4870 ft 137 kts 181°
2026-04-18 03:53 23.30948 113.50719 4870 ft 137 kts 180°
2026-04-18 03:53 23.29995 113.50754 4871 ft 137 kts 180°
2026-04-18 03:53 23.29035 113.50788 4871 ft 138 kts 180°
2026-04-18 03:54 23.28077 113.50820 4865 ft 137 kts 180°
2026-04-18 03:54 23.27129 113.50854 4867 ft 136 kts 180°
2026-04-18 03:54 23.26190 113.50888 4865 ft 134 kts 180°
2026-04-18 03:54 23.25254 113.50921 4869 ft 135 kts 180°
2026-04-18 03:55 23.24313 113.50953 4868 ft 136 kts 180°
2026-04-18 03:55 23.23382 113.50986 4867 ft 136 kts 181°
2026-04-18 03:55 23.22441 113.51019 4865 ft 135 kts 180°
2026-04-18 03:55 23.21503 113.51052 4868 ft 135 kts 180°
2026-04-18 03:56 23.20559 113.51085 4873 ft 135 kts 180°
2026-04-18 03:56 23.19612 113.51118 4872 ft 137 kts 180°
2026-04-18 03:56 23.18662 113.51151 4872 ft 137 kts 180°
2026-04-18 03:56 23.18028 113.51174 4872 ft 137 kts 180°
2026-04-18 03:57 23.15820 113.51251 4866 ft 135 kts 181°
2026-04-18 03:57 23.14885 113.51285 4868 ft 134 kts 181°
2026-04-18 03:57 23.13953 113.51318 4868 ft 134 kts 181°
2026-04-18 03:58 23.13018 113.51349 4869 ft 135 kts 181°
2026-04-18 03:58 23.12398 113.51371 4868 ft 135 kts 181°
2026-04-18 03:58 23.11460 113.51403 4869 ft 135 kts 181°
2026-04-18 03:58 23.10518 113.51437 4867 ft 135 kts 181°
2026-04-18 03:59 23.09275 113.51481 4869 ft 135 kts 181°
2026-04-18 03:59 23.08639 113.51503 4869 ft 135 kts 181°
2026-04-18 03:59 23.07696 113.51535 4867 ft 135 kts 181°
2026-04-18 03:59 23.06759 113.51568 4868 ft 135 kts 181°
2026-04-18 04:00 23.05819 113.51602 4871 ft 136 kts 181°
2026-04-18 04:00 23.04878 113.51635 4872 ft 138 kts 181°
2026-04-18 04:00 23.03915 113.51668 4867 ft 138 kts 181°
2026-04-18 04:00 23.02960 113.51702 4866 ft 136 kts 181°
2026-04-18 04:01 23.02016 113.51735 4866 ft 135 kts 181°
2026-04-18 04:01 23.01080 113.51768 4867 ft 134 kts 181°
2026-04-18 04:01 23.00148 113.51801 4867 ft 134 kts 181°
2026-04-18 04:01 22.99216 113.51834 4867 ft 134 kts 181°
2026-04-18 04:02 22.98284 113.51866 4867 ft 134 kts 181°
2026-04-18 04:02 22.97349 113.51898 4870 ft 135 kts 181°
2026-04-18 04:02 22.96415 113.51931 4869 ft 136 kts 181°
2026-04-18 04:02 22.95467 113.51964 4867 ft 136 kts 181°
2026-04-18 04:03 22.94523 113.51997 4869 ft 135 kts 181°
2026-04-18 04:03 22.93580 113.52030 4866 ft 135 kts 181°
2026-04-18 04:03 22.92641 113.52064 4866 ft 134 kts 181°
2026-04-18 04:03 22.91705 113.52096 4866 ft 134 kts 181°
2026-04-18 04:04 22.90770 113.52129 4870 ft 135 kts 181°
2026-04-18 04:04 22.89839 113.52161 4869 ft 136 kts 181°
2026-04-18 04:04 22.88893 113.52194 4868 ft 136 kts 181°
2026-04-18 04:04 22.87949 113.52227 4868 ft 136 kts 181°
2026-04-18 04:05 22.87003 113.52260 4871 ft 136 kts 181°
2026-04-18 04:05 22.86054 113.52293 4865 ft 136 kts 182°
2026-04-18 04:05 22.85108 113.52326 4866 ft 136 kts 182°
2026-04-18 04:05 22.84166 113.52359 4866 ft 135 kts 182°
2026-04-18 04:06 22.83223 113.52393 4867 ft 135 kts 182°
2026-04-18 04:06 22.82283 113.52425 4868 ft 135 kts 182°
2026-04-18 04:06 22.81347 113.52458 4868 ft 135 kts 182°
2026-04-18 04:06 22.80405 113.52491 4868 ft 135 kts 182°
2026-04-18 04:07 22.79467 113.52524 4870 ft 135 kts 182°
2026-04-18 04:07 22.78528 113.52557 4873 ft 134 kts 182°
2026-04-18 04:07 22.77587 113.52589 4879 ft 136 kts 182°
2026-04-18 04:07 22.76632 113.52622 4878 ft 138 kts 182°
2026-04-18 04:08 22.75672 113.52655 4871 ft 138 kts 182°
2026-04-18 04:08 22.74718 113.52689 4871 ft 137 kts 182°
2026-04-18 04:08 22.73779 113.52722 4870 ft 136 kts 182°
2026-04-18 04:08 22.72836 113.52755 4875 ft 135 kts 182°
2026-04-18 04:09 22.71884 113.52788 4874 ft 137 kts 182°
2026-04-18 04:09 22.70933 113.52821 4871 ft 136 kts 181°
2026-04-18 04:09 22.69988 113.52854 4871 ft 135 kts 182°
2026-04-18 04:09 22.69050 113.52886 4872 ft 135 kts 182°
2026-04-18 04:10 22.68110 113.52920 4874 ft 135 kts 182°
2026-04-18 04:10 22.67191 113.52952 4873 ft 134 kts 182°
2026-04-18 04:10 22.66247 113.52985 4874 ft 134 kts 181°
2026-04-18 04:10 22.65325 113.53017 4873 ft 134 kts 182°
2026-04-18 04:11 22.64396 113.53049 4876 ft 133 kts 182°
2026-04-18 04:11 22.63469 113.53082 4875 ft 133 kts 182°
2026-04-18 04:11 22.62541 113.53113 4876 ft 133 kts 182°
2026-04-18 04:11 22.61611 113.53146 4876 ft 134 kts 181°
2026-04-18 04:12 22.60681 113.53179 4874 ft 133 kts 181°
2026-04-18 04:12 22.59755 113.53211 4872 ft 133 kts 182°
2026-04-18 04:12 22.58830 113.53244 4872 ft 132 kts 182°
2026-04-18 04:12 22.57909 113.53276 4874 ft 132 kts 182°
2026-04-18 04:13 22.57002 113.53307 4874 ft 133 kts 182°
2026-04-18 04:13 22.56076 113.53338 4876 ft 133 kts 181°
2026-04-18 04:13 22.55138 113.53371 4874 ft 134 kts 181°
2026-04-18 04:13 22.54203 113.53403 4867 ft 134 kts 181°
2026-04-18 04:14 22.53274 113.53436 4874 ft 133 kts 181°
2026-04-18 04:14 22.52349 113.53469 4877 ft 133 kts 181°
2026-04-18 04:14 22.51418 113.53502 4875 ft 134 kts 181°
2026-04-18 04:14 22.50489 113.53533 4874 ft 133 kts 181°
2026-04-18 04:15 22.49561 113.53566 4873 ft 134 kts 182°
2026-04-18 04:15 22.48628 113.53598 4872 ft 134 kts 182°
2026-04-18 04:15 22.47694 113.53630 4872 ft 135 kts 182°
2026-04-18 04:15 22.46756 113.53662 4871 ft 134 kts 182°
2026-04-18 04:16 22.45820 113.53695 4869 ft 135 kts 182°
2026-04-18 04:16 22.44891 113.53727 4869 ft 135 kts 182°
2026-04-18 04:16 22.43952 113.53759 4868 ft 135 kts 181°
2026-04-18 04:16 22.43015 113.53792 4867 ft 134 kts 181°
2026-04-18 04:17 22.42083 113.53825 4867 ft 134 kts 182°
2026-04-18 04:17 22.41152 113.53858 4866 ft 133 kts 182°
2026-04-18 04:17 22.40225 113.53890 4866 ft 133 kts 182°
2026-04-18 04:17 22.39298 113.53922 4866 ft 133 kts 181°
2026-04-18 04:18 22.38367 113.53954 4868 ft 134 kts 181°
2026-04-18 04:18 22.37429 113.53987 4867 ft 135 kts 182°
2026-04-18 04:18 22.36489 113.54019 4867 ft 135 kts 181°
2026-04-18 04:18 22.35561 113.54051 4867 ft 135 kts 181°
2026-04-18 04:19 22.34622 113.54084 4867 ft 135 kts 181°
2026-04-18 04:19 22.33682 113.54116 4867 ft 135 kts 182°
2026-04-18 04:19 22.32742 113.54149 4864 ft 134 kts 182°
2026-04-18 04:19 22.31810 113.54181 4865 ft 135 kts 182°
2026-04-18 04:20 22.30872 113.54214 4863 ft 134 kts 182°
2026-04-18 04:20 22.29943 113.54246 4863 ft 133 kts 181°
2026-04-18 04:20 22.29021 113.54277 4860 ft 132 kts 181°
2026-04-18 04:20 22.28111 113.54310 4864 ft 131 kts 181°
2026-04-18 04:21 22.27193 113.54343 4866 ft 133 kts 181°
2026-04-18 04:21 22.26265 113.54374 4861 ft 134 kts 182°
2026-04-18 04:21 22.25335 113.54405 4861 ft 134 kts 181°
2026-04-18 04:21 22.24403 113.54438 4857 ft 133 kts 182°
2026-04-18 04:22 22.23476 113.54471 4863 ft 134 kts 182°
2026-04-18 04:22 22.22543 113.54502 4862 ft 134 kts 182°
2026-04-18 04:22 22.21622 113.54534 4860 ft 134 kts 182°
2026-04-18 04:22 22.20688 113.54567 4862 ft 134 kts 182°
2026-04-18 04:23 22.19753 113.54599 4862 ft 135 kts 182°
2026-04-18 04:23 22.18813 113.54631 4862 ft 135 kts 182°
2026-04-18 04:23 22.17874 113.54663 4860 ft 135 kts 182°
2026-04-18 04:23 22.16941 113.54696 4860 ft 134 kts 182°
2026-04-18 04:24 22.16010 113.54729 4861 ft 134 kts 181°
2026-04-18 04:24 22.15077 113.54761 4863 ft 134 kts 181°
2026-04-18 04:24 22.14154 113.54792 4864 ft 135 kts 182°
2026-04-18 04:24 22.13213 113.54825 4861 ft 135 kts 181°
2026-04-18 04:25 22.12275 113.54857 4860 ft 135 kts 181°
2026-04-18 04:25 22.11341 113.54890 4860 ft 134 kts 181°
2026-04-18 04:25 22.10411 113.54922 4860 ft 134 kts 182°
2026-04-18 04:25 22.09482 113.54954 4860 ft 133 kts 181°
2026-04-18 04:26 22.08553 113.54986 4858 ft 133 kts 181°
2026-04-18 04:26 22.07632 113.55099 4855 ft 137 kts 161°
2026-04-18 04:26 22.06949 113.55788 4857 ft 140 kts 117°
2026-04-18 04:26 22.06852 113.56809 4862 ft 139 kts 79°
2026-04-18 04:27 22.07047 113.57827 4864 ft 139 kts 77°
2026-04-18 04:27 22.07230 113.58834 4863 ft 139 kts 77°
2026-04-18 04:27 22.07422 113.59874 4863 ft 139 kts 77°
2026-04-18 04:27 22.07613 113.60898 4863 ft 139 kts 77°
2026-04-18 04:28 22.07805 113.61924 4862 ft 140 kts 77°
2026-04-18 04:28 22.07996 113.62951 4864 ft 140 kts 77°
2026-04-18 04:28 22.08185 113.63963 4863 ft 140 kts 77°
2026-04-18 04:28 22.08376 113.64991 4863 ft 140 kts 77°
2026-04-18 04:29 22.08567 113.66019 4862 ft 140 kts 77°
2026-04-18 04:29 22.08764 113.67074 4722 ft 148 kts 77°
2026-04-18 04:29 22.08971 113.68195 4505 ft 156 kts 77°
2026-04-18 04:29 22.09185 113.69352 4289 ft 159 kts 78°
2026-04-18 04:30 22.09402 113.70524 4072 ft 159 kts 78°
2026-04-18 04:30 22.09620 113.71698 3855 ft 160 kts 78°
2026-04-18 04:30 22.09838 113.72877 3652 ft 160 kts 78°
2026-04-18 04:30 22.10057 113.74056 3436 ft 160 kts 78°
2026-04-18 04:31 22.10400 113.75191 3223 ft 159 kts 59°
2026-04-18 04:31 22.11150 113.76046 3001 ft 157 kts 31°
2026-04-18 04:31 22.12115 113.76432 2964 ft 144 kts
2026-04-18 04:31 22.13081 113.76361 2959 ft 136 kts 341°
2026-04-18 04:32 22.13950 113.75967 2918 ft 135 kts 332°
2026-04-18 04:32 22.14807 113.75537 2846 ft 137 kts 332°
2026-04-18 04:32 22.15675 113.75101 2760 ft 138 kts 332°
2026-04-18 04:32 22.16545 113.74665 2665 ft 137 kts 333°
2026-04-18 04:33 22.17412 113.74233 2573 ft 137 kts 333°
2026-04-18 04:33 22.18278 113.73801 2485 ft 137 kts 332°
2026-04-18 04:33 22.19149 113.73365 2394 ft 138 kts 333°
2026-04-18 04:33 22.20010 113.72935 2305 ft 138 kts 333°
2026-04-18 04:34 22.20885 113.72498 2213 ft 139 kts 333°
2026-04-18 04:34 22.21768 113.72057 2120 ft 140 kts 333°
2026-04-18 04:34 22.22675 113.71679 2024 ft 141 kts 347°
2026-04-18 04:34 22.23657 113.71739 1945 ft 143 kts 15°
2026-04-18 04:35 22.24502 113.72291 1892 ft 144 kts 43°
2026-04-18 04:35 22.25012 113.73210 1812 ft 145 kts 72°
2026-04-18 04:35 22.25231 113.74274 1743 ft 146 kts 64°
2026-04-18 04:35 22.25944 113.74992 1662 ft 141 kts 18°
2026-04-18 04:36 22.26892 113.75253 1569 ft 140 kts
2026-04-18 04:36 22.27837 113.75463 1493 ft 139 kts 11°
2026-04-18 04:36 22.28588 113.76091 1487 ft 141 kts 59°
2026-04-18 04:36 22.28775 113.77101 1472 ft 141 kts 89°
2026-04-18 04:37 22.28954 113.78130 1457 ft 139 kts 72°
2026-04-18 04:37 22.29240 113.79117 1472 ft 137 kts 69°
2026-04-18 04:37 22.29541 113.80104 1469 ft 139 kts 69°
2026-04-18 04:37 22.29865 113.81116 1346 ft 147 kts 69°
2026-04-18 04:38 22.30208 113.82176 1154 ft 152 kts 69°
2026-04-18 04:38 22.30557 113.83256 964 ft 154 kts 69°
2026-04-18 04:38 22.30911 113.84355 778 ft 156 kts 70°
2026-04-18 04:38 22.31267 113.85457 589 ft 154 kts 67°
2026-04-18 04:39 22.31597 113.86493 404 ft 128 kts 70°
2026-04-18 04:39 22.31863 113.87314 246 ft 108 kts 67°
2026-04-18 04:39 22.32084 113.87995 111 ft 87 kts 67°
2026-04-18 04:39 22.32277 113.88579 57 ft 85 kts 64°
2026-04-18 04:40 22.32458 113.89146 37 ft 65 kts 67°